Erie, PA

7:32 AM EDT on August 25, 2016 (GMT -0400)
Erie International

Weather History for KERI - September, 2013

Change the Weather History Date:

Friday, September 6, 2013

  Actual Average Record
Temperature  
Mean Temperature 58 °F 67 °F  
Max Temperature 68 °F 75 °F 93 °F (2007)
Min Temperature 48 °F 59 °F 43 °F (1950)
Degree Days  
Heating Degree Days 7 1  
Month to date heating degree days 11 6  
Since 1 July heating degree days 23 24  
Cooling Degree Days 0 4  
Month to date cooling degree days 18 24  
Year to date cooling degree days 639 582  
Growing Degree Days 8 (Base 50)    
Moisture  
Dew Point 44 °F    
Average Humidity 62    
Maximum Humidity 80    
Minimum Humidity 43    
Precipitation  
Precipitation 0.00 in 0.13 in 1.44 in (1990)
Month to date precipitation 0.84 0.79  
Year to date precipitation 34.71 26.62  
Snow  
Snow 0.00 in 0.00 in - ()
Month to date snowfall 0.0 0.0  
Since 1 July snowfall 0.0 0.0  
Since 1 September snowfall 0.0 0.0  
Snow Depth 0.00 in    
Sea Level Pressure  
Sea Level Pressure 30.23 in    
Wind  
Wind Speed 6 mph (SSE)    
Max Wind Speed 12 mph    
Max Gust Speed 15 mph    
Visibility 10 miles    
Events      
T = Trace of Precipitation, MM = Missing Value Source: NWS Daily Summary

Daily Weather History Graph

Daily Weather History Graph

Search for Another Location

Airport or City:

Trip Planner

Search our weather history database for the weather conditions in past years. The results will help you decide how hot, cold, wet, or windy it might be!

Date:

Astronomy

Sep. 06, 2013 Rise Set
Actual Time 6:51 AM EDT 7:45 PM EDT
Civil Twilight 6:23 AM EDT 8:13 PM EDT
Nautical Twilight 5:49 AM EDT 8:47 PM EDT
Astronomical Twilight 5:14 AM EDT 9:22 PM EDT
Moon 8:04 AM EDT (9/6) 8:06 PM EDT (9/6)
Length of Visible Light 13h 50m
Length of Day
12h 53m
New Moon, 1% of the Moon is Illuminated
Sep 6
New Moon
Sep 12
First Quarter
Sep 19
Full
Sep 26
Last Quarter
Oct 4
New

Hourly Weather History & Observations

Time (EDT) Temp. Dew Point Humidity Pressure Visibility Wind Dir Wind Speed Gust Speed Precip Events Conditions
12:51 AM 54.0 °F 43.0 °F 66% 30.25 in 10.0 mi ESE 4.6 mph - N/A   Clear
1:51 AM 54.0 °F 41.0 °F 62% 30.26 in 10.0 mi ESE 4.6 mph - N/A   Clear
2:51 AM 53.1 °F 39.9 °F 61% 30.26 in 10.0 mi SE 5.8 mph - N/A   Clear
3:51 AM 51.1 °F 42.1 °F 71% 30.27 in 10.0 mi SE 8.1 mph - N/A   Clear
4:51 AM 50.0 °F 42.1 °F 74% 30.27 in 10.0 mi SSE 5.8 mph - N/A   Clear
5:51 AM 48.9 °F 42.1 °F 77% 30.27 in 10.0 mi South 6.9 mph - N/A   Clear
6:51 AM 48.0 °F 41.0 °F 77% 30.28 in 10.0 mi South 6.9 mph - N/A   Clear
7:51 AM 50.0 °F 39.9 °F 68% 30.30 in 10.0 mi SSE 5.8 mph - N/A   Clear
8:51 AM 55.0 °F 41.0 °F 59% 30.30 in 10.0 mi SSE 10.4 mph - N/A   Clear
9:51 AM 59.0 °F 42.1 °F 53% 30.29 in 10.0 mi South 8.1 mph - N/A   Clear
10:51 AM 63.0 °F 43.0 °F 48% 30.30 in 10.0 mi SW 5.8 mph - N/A   Clear
11:51 AM 64.0 °F 41.0 °F 43% 30.29 in 10.0 mi SW 4.6 mph - N/A   Clear
12:51 PM 64.9 °F 44.1 °F 47% 30.26 in 10.0 mi North 8.1 mph - N/A   Clear
1:51 PM 66.0 °F 44.1 °F 45% 30.25 in 10.0 mi NW 8.1 mph - N/A   Clear
2:51 PM 66.0 °F 46.0 °F 48% 30.23 in 10.0 mi NNW 9.2 mph - N/A   Clear
3:51 PM 66.9 °F 46.9 °F 49% 30.20 in 10.0 mi Variable 3.5 mph - N/A   Clear
4:51 PM 66.9 °F 46.9 °F 49% 30.18 in 10.0 mi NNW 5.8 mph - N/A   Clear
5:51 PM 66.9 °F 48.0 °F 51% 30.18 in 10.0 mi NNW 5.8 mph - N/A   Clear
6:51 PM 64.9 °F 46.9 °F 52% 30.18 in 10.0 mi North 3.5 mph - N/A   Clear
7:51 PM 62.1 °F 48.9 °F 62% 30.17 in 10.0 mi Calm Calm - N/A   Clear
8:51 PM 60.1 °F 51.1 °F 72% 30.17 in 10.0 mi Calm Calm - N/A   Clear
9:51 PM 57.9 °F 50.0 °F 75% 30.14 in 10.0 mi SSE 5.8 mph - N/A   Clear
10:51 PM 57.9 °F 48.9 °F 72% 30.13 in 10.0 mi South 3.5 mph - N/A   Clear
11:51 PM 57.0 °F 48.9 °F 74% 30.12 in 10.0 mi Calm Calm - N/A   Clear